This is the latest recevied weather packets stored in our database for station/object WX1N. If no packets are shown the sender has not sent any weather packets the latest 10 day(s).
| Time | Temp. | Humidity | Pressure | Rain* | Wind** | Luminosity | Snow |
|---|---|---|---|---|---|---|---|
| 1777980003 | 12.22° C | 77% | 1007.2 hPa | 0 mm | - | - | - |
| 1777979704 | 12.22° C | 78% | 1007.1 hPa | 0 mm | - | - | - |
| 1777979403 | 11.67° C | 78% | 1007 hPa | 0 mm | - | - | - |
| 1777979104 | 11.67° C | 79% | 1007.1 hPa | 0 mm | - | - | - |
| 1777978803 | 11.11° C | 80% | 1007 hPa | 0 mm | - | - | - |
| 1777978504 | 10.56° C | 82% | 1006.9 hPa | 0 mm | - | - | - |
| 1777978203 | 10.56° C | 83% | 1006.7 hPa | 0 mm | - | - | - |
| 1777977904 | 10° C | 83% | 1006.7 hPa | 0 mm | - | - | - |
| 1777977604 | 10° C | 83% | 1006.8 hPa | 0 mm | - | - | - |
| 1777977304 | 10° C | 84% | 1006.6 hPa | 0 mm | - | - | - |
| 1777977004 | 9.44° C | 84% | 1006.6 hPa | 0 mm | - | - | - |
| 1777976703 | 9.44° C | 84% | 1006.7 hPa | 0 mm | - | - | - |
| 1777976404 | 8.89° C | 84% | 1006.6 hPa | 0 mm | - | - | - |
| 1777976103 | 8.89° C | 84% | 1006.7 hPa | 0 mm | - | - | - |
| 1777975804 | 8.89° C | 83% | 1006.6 hPa | 0 mm | - | - | - |
| 1777975503 | 8.89° C | 83% | 1006.5 hPa | 0 mm | - | - | - |
| 1777975204 | 8.89° C | 83% | 1006.7 hPa | 0 mm | - | - | - |
| 1777974904 | 8.89° C | 83% | 1006.6 hPa | 0 mm | - | - | - |
| 1777974603 | 8.89° C | 83% | 1006.6 hPa | 0 mm | - | - | - |
| 1777974304 | 8.89° C | 81% | 1006.6 hPa | 0 mm | - | - | - |
| 1777974004 | 9.44° C | 80% | 1006.7 hPa | 0 mm | - | - | - |
| 1777973704 | 10° C | 79% | 1006.6 hPa | 0 mm | - | - | - |
| 1777973404 | 10° C | 79% | 1006.6 hPa | 0 mm | - | - | - |
| 1777973103 | 10.56° C | 78% | 1006.7 hPa | 0 mm | - | - | - |
| 1777972804 | 10.56° C | 78% | 1006.7 hPa | 0 mm | - | - | - |
* Rain latest hour (hover to see other rain measurements)
** Current wind speed in m/s (hover to see current wind gust speed)